Weather History for Cecil Field, FL

Change the Weather History Date:

Thursday, March 14, 2013

  Actual Average (KJAX) Record (KJAX)
Temperature  
Mean Temperature 46 °F 61 °F  
Max Temperature 60 °F 73 °F 89 °F (1956)
Min Temperature 32 °F 49 °F 28 °F (1926)
Degree Days  
Heating Degree Days 19 5  
Month to date heating degree days 87  
Since 1 July heating degree days 1220  
Cooling Degree Days 0 2  
Month to date cooling degree days 20  
Year to date cooling degree days 49  
Moisture  
Dew Point 29 °F    
Average Humidity 60    
Maximum Humidity 100    
Minimum Humidity 27    
Precipitation  
Precipitation 0.00 in 0.12 in 1.40 in (1930)
Month to date precipitation 1.90  
Year to date precipitation 8.39  
Snow  
Snow 0.00 in 0.00 in 0.00 in (2002)
Month to date snowfall 0.0  
Since 1 July snowfall T  
Snow Depth -    
Sea Level Pressure  
Sea Level Pressure 30.24 in    
Wind  
Wind Speed 6 mph (NNW)    
Max Wind Speed 12 mph    
Max Gust Speed 21 mph    
Visibility 10 miles    
Events      
T = Trace of Precipitation, MM = Missing Value Source: NWS Daily Summary

Daily Weather History Graph

Daily Weather History Graph

Search for Another Location

Airport:

Trip Planner

Search our weather history database for the weather conditions in past years. The results will help you decide how hot, cold, wet, or windy it might be!

Date:

Astronomy

Mar. 14, 2013 Rise Set
Actual Time 7:38 AM EDT 7:35 PM EDT
Civil Twilight 7:14 AM EDT 7:59 PM EDT
Nautical Twilight 6:46 AM EDT 8:27 PM EDT
Astronomical Twilight 6:18 AM EDT 8:55 PM EDT
Moon 9:06 AM EDT (3/14) 10:33 PM EDT (3/14)
Length of Visible Light 12h 44m
Length of Day
11h 57m
Waxing Crescent, 9% of the Moon is Illuminated
Mar 14
Waxing Crescent
Mar 19
First Quarter
Mar 27
Full
Apr 3
Last Quarter
Apr 10
New

Hourly Weather History & Observations

Time (EDT) Temp. Windchill Dew Point Humidity Pressure Visibility Wind Dir Wind Speed Gust Speed Precip Events Conditions
12:15 AM 48.2 °F - 32.0 °F 54% 30.20 in 10.0 mi West 5.8 mph - N/A   Clear
12:35 AM 46.4 °F 43.5 °F 32.0 °F 57% 30.20 in 10.0 mi WNW 5.8 mph - N/A   Clear
12:55 AM 46.4 °F 42.9 °F 30.2 °F 53% 30.19 in 10.0 mi WNW 6.9 mph - N/A   Clear
1:15 AM 48.2 °F - 30.2 °F 50% 30.19 in 10.0 mi WNW 8.1 mph - N/A   Clear
1:35 AM 50.0 °F - 28.4 °F 43% 30.19 in 10.0 mi WNW 8.1 mph - N/A   Clear
1:55 AM 48.2 °F - 28.4 °F 46% 30.20 in 10.0 mi WNW 6.9 mph - N/A   Clear
2:15 AM 48.2 °F - 28.4 °F 46% 30.20 in 10.0 mi WNW 8.1 mph - N/A   Clear
2:35 AM 48.2 °F - 28.4 °F 46% 30.20 in 10.0 mi WNW 9.2 mph - N/A   Clear
2:55 AM 46.4 °F 41.9 °F 28.4 °F 50% 30.21 in 10.0 mi WNW 9.2 mph - N/A   Clear
3:55 AM 46.4 °F 41.1 °F 26.6 °F 46% 30.21 in 10.0 mi NW 11.5 mph - N/A   Clear
4:15 AM 44.6 °F 40.7 °F 28.4 °F 53% 30.21 in 10.0 mi NNW 6.9 mph - N/A   Clear
4:55 AM 44.6 °F 40.2 °F 26.6 °F 49% 30.22 in 10.0 mi NW 8.1 mph - N/A   Clear
5:15 AM 42.8 °F 38.0 °F 26.6 °F 53% 30.23 in 10.0 mi NW 8.1 mph - N/A   Clear
5:35 AM 41.0 °F 36.4 °F 26.6 °F 57% 30.23 in 10.0 mi NW 6.9 mph - N/A   Clear
5:55 AM 42.8 °F 39.3 °F 26.6 °F 53% 30.24 in 10.0 mi NW 5.8 mph - N/A   Clear
6:15 AM 39.2 °F - 28.4 °F 65% 30.25 in 10.0 mi Calm Calm - N/A   Clear
6:35 AM 37.4 °F 34.9 °F 26.6 °F 65% 30.25 in 10.0 mi North 3.5 mph - N/A   Clear
6:50 AM 35.6 °F - 28.4 °F 75% 30.26 in 10.0 mi Calm Calm - N/A   Clear
7:50 AM 32.0 °F - 28.4 °F 87% 30.28 in 10.0 mi Calm Calm - N/A   Clear
8:50 AM 39.2 °F 32.0 °F 28.4 °F 65% 30.31 in 10.0 mi NNW 11.5 mph - N/A   Clear
9:50 AM 44.6 °F 38.8 °F 26.6 °F 49% 30.32 in 10.0 mi North 11.5 mph 20.7 mph N/A   Clear
10:50 AM 48.2 °F - 24.8 °F 40% 30.32 in 10.0 mi North 11.5 mph - N/A   Clear
12:50 PM 53.6 °F - 24.8 °F 33% 30.31 in 10.0 mi NNE 11.5 mph - N/A   Clear
1:50 PM 55.4 °F - 24.8 °F 31% 30.28 in 10.0 mi NNE 9.2 mph - N/A   Clear
2:50 PM 57.2 °F - 24.8 °F 29% 30.25 in 10.0 mi North 9.2 mph 18.4 mph N/A   Clear
3:50 PM 59.0 °F - 26.6 °F 29% 30.23 in 10.0 mi NNW 9.2 mph - N/A   Clear
4:50 PM 60.8 °F - 26.6 °F 27% 30.22 in 10.0 mi NNE 9.2 mph - N/A   Clear
6:50 PM 57.2 °F - 28.4 °F 33% 30.23 in 10.0 mi North 9.2 mph - N/A   Clear
7:50 PM 48.2 °F - 35.6 °F 62% 30.23 in 10.0 mi NW 4.6 mph - N/A   Clear
8:15 PM 42.8 °F - 35.6 °F 76% 30.24 in 10.0 mi Calm Calm - N/A   Clear
8:35 PM 41.0 °F - 33.8 °F 76% 30.24 in 10.0 mi Calm Calm - N/A   Clear
8:55 PM 39.2 °F - 33.8 °F 81% 30.25 in 10.0 mi Calm Calm - N/A   Clear
9:15 PM 39.2 °F - 33.8 °F 81% 30.25 in 10.0 mi Calm Calm - N/A   Clear
9:35 PM 37.4 °F - 33.8 °F 87% 30.26 in 10.0 mi Calm Calm - N/A   Clear
9:55 PM 37.4 °F - 32.0 °F 81% 30.26 in 10.0 mi Calm Calm - N/A   Clear
10:15 PM 37.4 °F - 32.0 °F 81% 30.27 in 10.0 mi Calm Calm - N/A   Clear
10:35 PM 35.6 °F - 32.0 °F 87% 30.26 in 10.0 mi Calm Calm - N/A   Clear
10:55 PM 33.8 °F - 32.0 °F 93% 30.27 in 10.0 mi Calm Calm - N/A   Clear
11:15 PM 35.6 °F - 32.0 °F 87% 30.28 in 10.0 mi Calm Calm - N/A   Clear
11:35 PM 33.8 °F - 32.0 °F 93% 30.28 in 10.0 mi Calm Calm - N/A   Clear
11:55 PM 32.0 °F - 32.0 °F 100% 30.28 in 10.0 mi Calm Calm - N/A   Clear